<?xml version="1.0" encoding="UTF-8" standalone="no" ?>
<gpx xmlns="http://www.topografix.com/GPX/1/1" xmlns:xsi="http://www.w3.org/2001/XMLSchema-instance" xsi:schemaLocation="http://www.topografix.com/GPX/1/1 http://www.topografix.com/GPX/1/1/gpx.xsd" version="1.1" creator="VisuGPX - https://www.visugpx.com">
  <metadata>
    <name>Bourgueil_ChouzeLaChapelle_20-24km</name>
    <desc><![CDATA[gnerando idor: 8178174_8178187_8178228]]></desc>
  </metadata>
  <trk>
    <name><![CDATA[Bourgueil_Chouze_24km-8178174]]></name>
    <extensions>
      <line xmlns="http://www.topografix.com/GPX/gpx_style/0/2">
        <color>0000FF</color>
        <width>4</width>
      </line>
    </extensions>
    <trkseg>
      <trkpt lat="47.28249" lon="0.16861">
        <ele>48</ele>
        <time>2023-10-31T12:56:53Z</time>
      </trkpt>
      <trkpt lat="47.28255" lon="0.16789">
        <ele>47</ele>
        <time>2023-10-31T12:57:59Z</time>
      </trkpt>
      <trkpt lat="47.28179" lon="0.16759">
        <ele>46</ele>
        <time>2023-10-31T12:59:44Z</time>
      </trkpt>
      <trkpt lat="47.28118" lon="0.16712">
        <ele>42</ele>
        <time>2023-10-31T13:01:16Z</time>
      </trkpt>
      <trkpt lat="47.2815" lon="0.16291">
        <ele>41</ele>
        <time>2023-10-31T13:07:39Z</time>
      </trkpt>
      <trkpt lat="47.27981" lon="0.16265">
        <ele>33</ele>
        <time>2023-10-31T13:11:26Z</time>
      </trkpt>
      <trkpt lat="47.27856" lon="0.16179">
        <ele>30</ele>
        <time>2023-10-31T13:14:30Z</time>
      </trkpt>
      <trkpt lat="47.27821" lon="0.16021">
        <ele>28</ele>
        <time>2023-10-31T13:17:00Z</time>
      </trkpt>
      <trkpt lat="47.27733" lon="0.16016">
        <ele>28</ele>
        <time>2023-10-31T13:18:58Z</time>
      </trkpt>
      <trkpt lat="47.27567" lon="0.1584">
        <ele>29</ele>
        <time>2023-10-31T13:23:31Z</time>
      </trkpt>
      <trkpt lat="47.26988" lon="0.15699">
        <ele>28</ele>
        <time>2023-10-31T13:36:34Z</time>
      </trkpt>
      <trkpt lat="47.26912" lon="0.15952">
        <ele>27</ele>
        <time>2023-10-31T13:40:44Z</time>
      </trkpt>
      <trkpt lat="47.26406" lon="0.15613">
        <ele>27</ele>
        <time>2023-10-31T13:53:06Z</time>
      </trkpt>
      <trkpt lat="47.26216" lon="0.16064">
        <ele>26</ele>
        <time>2023-10-31T14:01:07Z</time>
      </trkpt>
      <trkpt lat="47.26123" lon="0.16488">
        <ele>31</ele>
        <time>2023-10-31T14:07:50Z</time>
      </trkpt>
      <trkpt lat="47.25995" lon="0.17209">
        <ele>30</ele>
        <time>2023-10-31T14:19:05Z</time>
      </trkpt>
      <trkpt lat="47.25966" lon="0.17742">
        <ele>29</ele>
        <time>2023-10-31T14:27:10Z</time>
      </trkpt>
      <trkpt lat="47.2575" lon="0.17759">
        <ele>31</ele>
        <time>2023-10-31T14:31:58Z</time>
      </trkpt>
      <trkpt lat="47.25535" lon="0.17845">
        <ele>29</ele>
        <time>2023-10-31T14:36:56Z</time>
      </trkpt>
      <trkpt lat="47.25407" lon="0.18046">
        <ele>30</ele>
        <time>2023-10-31T14:41:05Z</time>
      </trkpt>
      <trkpt lat="47.2536" lon="0.17669">
        <ele>29</ele>
        <time>2023-10-31T14:46:52Z</time>
      </trkpt>
      <trkpt lat="47.25313" lon="0.17617">
        <ele>28</ele>
        <time>2023-10-31T14:48:11Z</time>
      </trkpt>
      <trkpt lat="47.25293" lon="0.17686">
        <ele>29</ele>
        <time>2023-10-31T14:49:19Z</time>
      </trkpt>
      <trkpt lat="47.2515" lon="0.17729">
        <ele>29</ele>
        <time>2023-10-31T14:52:34Z</time>
      </trkpt>
      <trkpt lat="47.25139" lon="0.17819">
        <ele>30</ele>
        <time>2023-10-31T14:53:56Z</time>
      </trkpt>
      <trkpt lat="47.24859" lon="0.17857">
        <ele>30</ele>
        <time>2023-10-31T15:00:12Z</time>
      </trkpt>
      <trkpt lat="47.24821" lon="0.17789">
        <ele>30</ele>
        <time>2023-10-31T15:01:31Z</time>
      </trkpt>
      <trkpt lat="47.24713" lon="0.17767">
        <ele>30</ele>
        <time>2023-10-31T15:03:57Z</time>
      </trkpt>
      <trkpt lat="47.24588" lon="0.17866">
        <ele>30</ele>
        <time>2023-10-31T15:07:06Z</time>
      </trkpt>
      <trkpt lat="47.24346" lon="0.17621">
        <ele>30</ele>
        <time>2023-10-31T15:13:38Z</time>
      </trkpt>
      <trkpt lat="47.24285" lon="0.17621">
        <ele>30</ele>
        <time>2023-10-31T15:15:00Z</time>
      </trkpt>
      <trkpt lat="47.24308" lon="0.17428">
        <ele>29</ele>
        <time>2023-10-31T15:17:57Z</time>
      </trkpt>
      <trkpt lat="47.24384" lon="0.17364">
        <ele>29</ele>
        <time>2023-10-31T15:19:54Z</time>
      </trkpt>
      <trkpt lat="47.24431" lon="0.17124">
        <ele>31</ele>
        <time>2023-10-31T15:23:40Z</time>
      </trkpt>
      <trkpt lat="47.24369" lon="0.17059">
        <ele>31</ele>
        <time>2023-10-31T15:25:22Z</time>
      </trkpt>
      <trkpt lat="47.24457" lon="0.1654">
        <ele>31</ele>
        <time>2023-10-31T15:33:26Z</time>
      </trkpt>
      <trkpt lat="47.2462" lon="0.16574">
        <ele>30</ele>
        <time>2023-10-31T15:37:06Z</time>
      </trkpt>
      <trkpt lat="47.24626" lon="0.16265">
        <ele>32</ele>
        <time>2023-10-31T15:41:46Z</time>
      </trkpt>
      <trkpt lat="47.24166" lon="0.16192">
        <ele>38</ele>
        <time>2023-10-31T15:52:04Z</time>
      </trkpt>
      <trkpt lat="47.24166" lon="0.16136">
        <ele>37</ele>
        <time>2023-10-31T15:52:54Z</time>
      </trkpt>
      <trkpt lat="47.24017" lon="0.16055">
        <ele>39</ele>
        <time>2023-10-31T15:56:26Z</time>
      </trkpt>
      <trkpt lat="47.24046" lon="0.159">
        <ele>36</ele>
        <time>2023-10-31T15:58:52Z</time>
      </trkpt>
      <trkpt lat="47.23994" lon="0.15596">
        <ele>33</ele>
        <time>2023-10-31T16:03:36Z</time>
      </trkpt>
      <trkpt lat="47.24049" lon="0.15437">
        <ele>33</ele>
        <time>2023-10-31T16:06:18Z</time>
      </trkpt>
      <trkpt lat="47.23988" lon="0.15145">
        <ele>34</ele>
        <time>2023-10-31T16:10:54Z</time>
      </trkpt>
      <trkpt lat="47.24023" lon="0.14926">
        <ele>34</ele>
        <time>2023-10-31T16:14:18Z</time>
      </trkpt>
      <trkpt lat="47.24014" lon="0.1475">
        <ele>37</ele>
        <time>2023-10-31T16:16:58Z</time>
      </trkpt>
      <trkpt lat="47.24145" lon="0.1466">
        <ele>33</ele>
        <time>2023-10-31T16:20:11Z</time>
      </trkpt>
      <trkpt lat="47.24081" lon="0.14102">
        <ele>32</ele>
        <time>2023-10-31T16:28:44Z</time>
      </trkpt>
      <trkpt lat="47.2395" lon="0.13725">
        <ele>34</ele>
        <time>2023-10-31T16:35:07Z</time>
      </trkpt>
      <trkpt lat="47.23982" lon="0.1369">
        <ele>33</ele>
        <time>2023-10-31T16:36:01Z</time>
      </trkpt>
      <trkpt lat="47.23918" lon="0.1369">
        <ele>34</ele>
        <time>2023-10-31T16:37:26Z</time>
      </trkpt>
      <trkpt lat="47.23874" lon="0.1339">
        <ele>33</ele>
        <time>2023-10-31T16:42:04Z</time>
      </trkpt>
      <trkpt lat="47.23761" lon="0.13025">
        <ele>34</ele>
        <time>2023-10-31T16:48:08Z</time>
      </trkpt>
      <trkpt lat="47.23492" lon="0.12017">
        <ele>34</ele>
        <time>2023-10-31T17:04:29Z</time>
      </trkpt>
      <trkpt lat="47.23886" lon="0.11914">
        <ele>31</ele>
        <time>2023-10-31T17:13:23Z</time>
      </trkpt>
      <trkpt lat="47.23825" lon="0.11472">
        <ele>32</ele>
        <time>2023-10-31T17:20:12Z</time>
      </trkpt>
      <trkpt lat="47.23973" lon="0.11411">
        <ele>31</ele>
        <time>2023-10-31T17:23:37Z</time>
      </trkpt>
      <trkpt lat="47.24294" lon="0.11055">
        <ele>30</ele>
        <time>2023-10-31T17:32:33Z</time>
      </trkpt>
      <trkpt lat="47.24533" lon="0.11051">
        <ele>28</ele>
        <time>2023-10-31T17:37:52Z</time>
      </trkpt>
      <trkpt lat="47.24573" lon="0.10824">
        <ele>30</ele>
        <time>2023-10-31T17:41:24Z</time>
      </trkpt>
      <trkpt lat="47.24614" lon="0.10763">
        <ele>28</ele>
        <time>2023-10-31T17:42:42Z</time>
      </trkpt>
      <trkpt lat="47.24538" lon="0.10665">
        <ele>29</ele>
        <time>2023-10-31T17:44:57Z</time>
      </trkpt>
      <trkpt lat="47.24576" lon="0.10334">
        <ele>28</ele>
        <time>2023-10-31T17:50:01Z</time>
      </trkpt>
      <trkpt lat="47.24806" lon="0.10343">
        <ele>28</ele>
        <time>2023-10-31T17:55:08Z</time>
      </trkpt>
      <trkpt lat="47.24871" lon="0.10412">
        <ele>26</ele>
        <time>2023-10-31T17:56:55Z</time>
      </trkpt>
      <trkpt lat="47.25098" lon="0.10394">
        <ele>27</ele>
        <time>2023-10-31T18:01:58Z</time>
      </trkpt>
      <trkpt lat="47.25319" lon="0.10334">
        <ele>27</ele>
        <time>2023-10-31T18:06:58Z</time>
      </trkpt>
      <trkpt lat="47.25398" lon="0.10532">
        <ele>27</ele>
        <time>2023-10-31T18:10:26Z</time>
      </trkpt>
      <trkpt lat="47.25937" lon="0.10678">
        <ele>30</ele>
        <time>2023-10-31T18:22:37Z</time>
      </trkpt>
      <trkpt lat="47.26042" lon="0.10909">
        <ele>30</ele>
        <time>2023-10-31T18:26:49Z</time>
      </trkpt>
      <trkpt lat="47.26333" lon="0.10802">
        <ele>30</ele>
        <time>2023-10-31T18:33:30Z</time>
      </trkpt>
      <trkpt lat="47.26627" lon="0.10763">
        <ele>27</ele>
        <time>2023-10-31T18:40:03Z</time>
      </trkpt>
      <trkpt lat="47.26936" lon="0.10952">
        <ele>27</ele>
        <time>2023-10-31T18:47:30Z</time>
      </trkpt>
      <trkpt lat="47.27157" lon="0.10969">
        <ele>28</ele>
        <time>2023-10-31T18:52:25Z</time>
      </trkpt>
      <trkpt lat="47.27337" lon="0.11128">
        <ele>27</ele>
        <time>2023-10-31T18:57:05Z</time>
      </trkpt>
      <trkpt lat="47.27646" lon="0.11167">
        <ele>28</ele>
        <time>2023-10-31T19:03:59Z</time>
      </trkpt>
      <trkpt lat="47.27795" lon="0.11502">
        <ele>27</ele>
        <time>2023-10-31T19:10:02Z</time>
      </trkpt>
      <trkpt lat="47.27917" lon="0.11566">
        <ele>28</ele>
        <time>2023-10-31T19:12:55Z</time>
      </trkpt>
      <trkpt lat="47.28019" lon="0.11519">
        <ele>32</ele>
        <time>2023-10-31T19:15:17Z</time>
      </trkpt>
      <trkpt lat="47.28016" lon="0.1166">
        <ele>32</ele>
        <time>2023-10-31T19:17:25Z</time>
      </trkpt>
      <trkpt lat="47.28086" lon="0.11746">
        <ele>34</ele>
        <time>2023-10-31T19:19:27Z</time>
      </trkpt>
      <trkpt lat="47.28013" lon="0.11901">
        <ele>32</ele>
        <time>2023-10-31T19:22:17Z</time>
      </trkpt>
      <trkpt lat="47.28097" lon="0.12025">
        <ele>38</ele>
        <time>2023-10-31T19:24:56Z</time>
      </trkpt>
      <trkpt lat="47.28118" lon="0.12532">
        <ele>39</ele>
        <time>2023-10-31T19:32:36Z</time>
      </trkpt>
      <trkpt lat="47.28138" lon="0.12986">
        <ele>38</ele>
        <time>2023-10-31T19:39:28Z</time>
      </trkpt>
      <trkpt lat="47.27797" lon="0.13081">
        <ele>27</ele>
        <time>2023-10-31T19:47:11Z</time>
      </trkpt>
      <trkpt lat="47.2776" lon="0.13171">
        <ele>27</ele>
        <time>2023-10-31T19:48:46Z</time>
      </trkpt>
      <trkpt lat="47.27634" lon="0.13261">
        <ele>29</ele>
        <time>2023-10-31T19:51:53Z</time>
      </trkpt>
      <trkpt lat="47.27707" lon="0.1357">
        <ele>28</ele>
        <time>2023-10-31T19:56:49Z</time>
      </trkpt>
      <trkpt lat="47.2771" lon="0.13922">
        <ele>28</ele>
        <time>2023-10-31T20:02:08Z</time>
      </trkpt>
      <trkpt lat="47.27652" lon="0.14527">
        <ele>28</ele>
        <time>2023-10-31T20:11:21Z</time>
      </trkpt>
      <trkpt lat="47.27742" lon="0.14669">
        <ele>29</ele>
        <time>2023-10-31T20:14:17Z</time>
      </trkpt>
      <trkpt lat="47.27716" lon="0.15064">
        <ele>28</ele>
        <time>2023-10-31T20:20:16Z</time>
      </trkpt>
      <trkpt lat="47.27745" lon="0.1542">
        <ele>31</ele>
        <time>2023-10-31T20:25:41Z</time>
      </trkpt>
      <trkpt lat="47.27966" lon="0.15476">
        <ele>29</ele>
        <time>2023-10-31T20:30:40Z</time>
      </trkpt>
      <trkpt lat="47.27934" lon="0.15819">
        <ele>31</ele>
        <time>2023-10-31T20:35:54Z</time>
      </trkpt>
      <trkpt lat="47.27963" lon="0.166">
        <ele>32</ele>
        <time>2023-10-31T20:47:42Z</time>
      </trkpt>
      <trkpt lat="47.27984" lon="0.16909">
        <ele>34</ele>
        <time>2023-10-31T20:52:23Z</time>
      </trkpt>
      <trkpt lat="47.28147" lon="0.16896">
        <ele>45</ele>
        <time>2023-10-31T20:56:01Z</time>
      </trkpt>
      <trkpt lat="47.28272" lon="0.16939">
        <ele>47</ele>
        <time>2023-10-31T20:58:52Z</time>
      </trkpt>
    </trkseg>
  </trk>
  <trk>
    <name><![CDATA[Bourgueil_Chouze_20.7km-8178187]]></name>
    <extensions>
      <line xmlns="http://www.topografix.com/GPX/gpx_style/0/2">
        <color>00FF00</color>
        <width>4</width>
      </line>
    </extensions>
    <trkseg>
      <trkpt lat="47.28249" lon="0.16861">
        <ele>48</ele>
        <time>2023-10-31T12:56:37Z</time>
      </trkpt>
      <trkpt lat="47.28255" lon="0.16789">
        <ele>47</ele>
        <time>2023-10-31T12:57:43Z</time>
      </trkpt>
      <trkpt lat="47.28179" lon="0.16759">
        <ele>46</ele>
        <time>2023-10-31T12:59:28Z</time>
      </trkpt>
      <trkpt lat="47.28118" lon="0.16712">
        <ele>42</ele>
        <time>2023-10-31T13:01:00Z</time>
      </trkpt>
      <trkpt lat="47.2815" lon="0.16291">
        <ele>41</ele>
        <time>2023-10-31T13:07:23Z</time>
      </trkpt>
      <trkpt lat="47.27981" lon="0.16265">
        <ele>33</ele>
        <time>2023-10-31T13:11:10Z</time>
      </trkpt>
      <trkpt lat="47.27856" lon="0.16179">
        <ele>30</ele>
        <time>2023-10-31T13:14:14Z</time>
      </trkpt>
      <trkpt lat="47.27821" lon="0.16021">
        <ele>28</ele>
        <time>2023-10-31T13:16:44Z</time>
      </trkpt>
      <trkpt lat="47.27733" lon="0.16016">
        <ele>28</ele>
        <time>2023-10-31T13:18:42Z</time>
      </trkpt>
      <trkpt lat="47.27567" lon="0.1584">
        <ele>29</ele>
        <time>2023-10-31T13:23:15Z</time>
      </trkpt>
      <trkpt lat="47.26988" lon="0.15699">
        <ele>28</ele>
        <time>2023-10-31T13:36:18Z</time>
      </trkpt>
      <trkpt lat="47.26912" lon="0.15952">
        <ele>27</ele>
        <time>2023-10-31T13:40:28Z</time>
      </trkpt>
      <trkpt lat="47.26406" lon="0.15613">
        <ele>27</ele>
        <time>2023-10-31T13:52:50Z</time>
      </trkpt>
      <trkpt lat="47.26216" lon="0.16064">
        <ele>26</ele>
        <time>2023-10-31T14:00:51Z</time>
      </trkpt>
      <trkpt lat="47.26123" lon="0.16488">
        <ele>31</ele>
        <time>2023-10-31T14:07:34Z</time>
      </trkpt>
      <trkpt lat="47.25995" lon="0.17209">
        <ele>30</ele>
        <time>2023-10-31T14:18:49Z</time>
      </trkpt>
      <trkpt lat="47.25966" lon="0.17742">
        <ele>29</ele>
        <time>2023-10-31T14:26:54Z</time>
      </trkpt>
      <trkpt lat="47.2575" lon="0.17759">
        <ele>31</ele>
        <time>2023-10-31T14:31:42Z</time>
      </trkpt>
      <trkpt lat="47.25535" lon="0.17845">
        <ele>29</ele>
        <time>2023-10-31T14:36:40Z</time>
      </trkpt>
      <trkpt lat="47.25407" lon="0.18046">
        <ele>30</ele>
        <time>2023-10-31T14:40:49Z</time>
      </trkpt>
      <trkpt lat="47.2536" lon="0.17669">
        <ele>29</ele>
        <time>2023-10-31T14:46:36Z</time>
      </trkpt>
      <trkpt lat="47.25313" lon="0.17617">
        <ele>28</ele>
        <time>2023-10-31T14:47:55Z</time>
      </trkpt>
      <trkpt lat="47.25293" lon="0.17686">
        <ele>29</ele>
        <time>2023-10-31T14:49:03Z</time>
      </trkpt>
      <trkpt lat="47.2515" lon="0.17729">
        <ele>29</ele>
        <time>2023-10-31T14:52:18Z</time>
      </trkpt>
      <trkpt lat="47.25139" lon="0.17819">
        <ele>30</ele>
        <time>2023-10-31T14:53:40Z</time>
      </trkpt>
      <trkpt lat="47.24859" lon="0.17857">
        <ele>30</ele>
        <time>2023-10-31T14:59:56Z</time>
      </trkpt>
      <trkpt lat="47.24821" lon="0.17789">
        <ele>30</ele>
        <time>2023-10-31T15:01:15Z</time>
      </trkpt>
      <trkpt lat="47.24713" lon="0.17767">
        <ele>30</ele>
        <time>2023-10-31T15:03:41Z</time>
      </trkpt>
      <trkpt lat="47.24588" lon="0.17866">
        <ele>30</ele>
        <time>2023-10-31T15:06:50Z</time>
      </trkpt>
      <trkpt lat="47.24346" lon="0.17621">
        <ele>30</ele>
        <time>2023-10-31T15:13:22Z</time>
      </trkpt>
      <trkpt lat="47.24285" lon="0.17621">
        <ele>30</ele>
        <time>2023-10-31T15:14:44Z</time>
      </trkpt>
      <trkpt lat="47.24308" lon="0.17428">
        <ele>29</ele>
        <time>2023-10-31T15:17:41Z</time>
      </trkpt>
      <trkpt lat="47.24384" lon="0.17364">
        <ele>29</ele>
        <time>2023-10-31T15:19:38Z</time>
      </trkpt>
      <trkpt lat="47.24431" lon="0.17124">
        <ele>31</ele>
        <time>2023-10-31T15:23:24Z</time>
      </trkpt>
      <trkpt lat="47.24369" lon="0.17059">
        <ele>31</ele>
        <time>2023-10-31T15:25:06Z</time>
      </trkpt>
      <trkpt lat="47.24457" lon="0.1654">
        <ele>31</ele>
        <time>2023-10-31T15:33:10Z</time>
      </trkpt>
      <trkpt lat="47.2462" lon="0.16574">
        <ele>30</ele>
        <time>2023-10-31T15:36:50Z</time>
      </trkpt>
      <trkpt lat="47.24626" lon="0.16265">
        <ele>32</ele>
        <time>2023-10-31T15:41:30Z</time>
      </trkpt>
      <trkpt lat="47.24166" lon="0.16192">
        <ele>38</ele>
        <time>2023-10-31T15:51:48Z</time>
      </trkpt>
      <trkpt lat="47.24166" lon="0.16136">
        <ele>37</ele>
        <time>2023-10-31T15:52:38Z</time>
      </trkpt>
      <trkpt lat="47.24017" lon="0.16055">
        <ele>39</ele>
        <time>2023-10-31T15:56:10Z</time>
      </trkpt>
      <trkpt lat="47.24046" lon="0.159">
        <ele>36</ele>
        <time>2023-10-31T15:58:36Z</time>
      </trkpt>
      <trkpt lat="47.23994" lon="0.15596">
        <ele>33</ele>
        <time>2023-10-31T16:03:20Z</time>
      </trkpt>
      <trkpt lat="47.24049" lon="0.15437">
        <ele>33</ele>
        <time>2023-10-31T16:06:02Z</time>
      </trkpt>
      <trkpt lat="47.23988" lon="0.15145">
        <ele>34</ele>
        <time>2023-10-31T16:10:38Z</time>
      </trkpt>
      <trkpt lat="47.24023" lon="0.14926">
        <ele>34</ele>
        <time>2023-10-31T16:14:02Z</time>
      </trkpt>
      <trkpt lat="47.24014" lon="0.1475">
        <ele>37</ele>
        <time>2023-10-31T16:16:42Z</time>
      </trkpt>
      <trkpt lat="47.24145" lon="0.1466">
        <ele>33</ele>
        <time>2023-10-31T16:19:55Z</time>
      </trkpt>
      <trkpt lat="47.24081" lon="0.14102">
        <ele>32</ele>
        <time>2023-10-31T16:28:28Z</time>
      </trkpt>
      <trkpt lat="47.2395" lon="0.13725">
        <ele>34</ele>
        <time>2023-10-31T16:34:51Z</time>
      </trkpt>
      <trkpt lat="47.23982" lon="0.1369">
        <ele>33</ele>
        <time>2023-10-31T16:35:45Z</time>
      </trkpt>
      <trkpt lat="47.23918" lon="0.1369">
        <ele>34</ele>
        <time>2023-10-31T16:37:10Z</time>
      </trkpt>
      <trkpt lat="47.2388" lon="0.13364">
        <ele>33</ele>
        <time>2023-10-31T16:42:10Z</time>
      </trkpt>
      <trkpt lat="47.23761" lon="0.13025">
        <ele>34</ele>
        <time>2023-10-31T16:47:55Z</time>
      </trkpt>
      <trkpt lat="47.23492" lon="0.12017">
        <ele>34</ele>
        <time>2023-10-31T17:04:17Z</time>
      </trkpt>
      <trkpt lat="47.23886" lon="0.11914">
        <ele>31</ele>
        <time>2023-10-31T17:13:11Z</time>
      </trkpt>
      <trkpt lat="47.24154" lon="0.11875">
        <ele>29</ele>
        <time>2023-10-31T17:19:10Z</time>
      </trkpt>
      <trkpt lat="47.24302" lon="0.11931">
        <ele>28</ele>
        <time>2023-10-31T17:22:34Z</time>
      </trkpt>
      <trkpt lat="47.24378" lon="0.11896">
        <ele>29</ele>
        <time>2023-10-31T17:24:20Z</time>
      </trkpt>
      <trkpt lat="47.24434" lon="0.11781">
        <ele>29</ele>
        <time>2023-10-31T17:26:29Z</time>
      </trkpt>
      <trkpt lat="47.24664" lon="0.11751">
        <ele>29</ele>
        <time>2023-10-31T17:31:37Z</time>
      </trkpt>
      <trkpt lat="47.2478" lon="0.11802">
        <ele>28</ele>
        <time>2023-10-31T17:34:18Z</time>
      </trkpt>
      <trkpt lat="47.24923" lon="0.11806">
        <ele>28</ele>
        <time>2023-10-31T17:37:29Z</time>
      </trkpt>
      <trkpt lat="47.25045" lon="0.11738">
        <ele>28</ele>
        <time>2023-10-31T17:40:23Z</time>
      </trkpt>
      <trkpt lat="47.25028" lon="0.11806">
        <ele>28</ele>
        <time>2023-10-31T17:41:29Z</time>
      </trkpt>
      <trkpt lat="47.25101" lon="0.11862">
        <ele>29</ele>
        <time>2023-10-31T17:43:19Z</time>
      </trkpt>
      <trkpt lat="47.25063" lon="0.12416">
        <ele>28</ele>
        <time>2023-10-31T17:51:43Z</time>
      </trkpt>
      <trkpt lat="47.25264" lon="0.12484">
        <ele>30</ele>
        <time>2023-10-31T17:56:18Z</time>
      </trkpt>
      <trkpt lat="47.25517" lon="0.12673">
        <ele>28</ele>
        <time>2023-10-31T18:02:37Z</time>
      </trkpt>
      <trkpt lat="47.25686" lon="0.12798">
        <ele>28</ele>
        <time>2023-10-31T18:06:49Z</time>
      </trkpt>
      <trkpt lat="47.25648" lon="0.13235">
        <ele>28</ele>
        <time>2023-10-31T18:13:28Z</time>
      </trkpt>
      <trkpt lat="47.25943" lon="0.13566">
        <ele>28</ele>
        <time>2023-10-31T18:21:43Z</time>
      </trkpt>
      <trkpt lat="47.25963" lon="0.13665">
        <ele>27</ele>
        <time>2023-10-31T18:23:17Z</time>
      </trkpt>
      <trkpt lat="47.26242" lon="0.14021">
        <ele>28</ele>
        <time>2023-10-31T18:31:29Z</time>
      </trkpt>
      <trkpt lat="47.26545" lon="0.14107">
        <ele>29</ele>
        <time>2023-10-31T18:38:21Z</time>
      </trkpt>
      <trkpt lat="47.26784" lon="0.1421">
        <ele>28</ele>
        <time>2023-10-31T18:43:53Z</time>
      </trkpt>
      <trkpt lat="47.26985" lon="0.14205">
        <ele>28</ele>
        <time>2023-10-31T18:48:21Z</time>
      </trkpt>
      <trkpt lat="47.2734" lon="0.14334">
        <ele>28</ele>
        <time>2023-10-31T18:56:29Z</time>
      </trkpt>
      <trkpt lat="47.27652" lon="0.14527">
        <ele>28</ele>
        <time>2023-10-31T19:04:01Z</time>
      </trkpt>
      <trkpt lat="47.27742" lon="0.14669">
        <ele>29</ele>
        <time>2023-10-31T19:06:57Z</time>
      </trkpt>
      <trkpt lat="47.27716" lon="0.15064">
        <ele>28</ele>
        <time>2023-10-31T19:12:56Z</time>
      </trkpt>
      <trkpt lat="47.27745" lon="0.1542">
        <ele>31</ele>
        <time>2023-10-31T19:18:21Z</time>
      </trkpt>
      <trkpt lat="47.27966" lon="0.15476">
        <ele>29</ele>
        <time>2023-10-31T19:23:20Z</time>
      </trkpt>
      <trkpt lat="47.27934" lon="0.15819">
        <ele>31</ele>
        <time>2023-10-31T19:28:33Z</time>
      </trkpt>
      <trkpt lat="47.27963" lon="0.166">
        <ele>32</ele>
        <time>2023-10-31T19:40:22Z</time>
      </trkpt>
      <trkpt lat="47.27984" lon="0.16909">
        <ele>34</ele>
        <time>2023-10-31T19:45:03Z</time>
      </trkpt>
      <trkpt lat="47.28147" lon="0.16896">
        <ele>45</ele>
        <time>2023-10-31T19:48:40Z</time>
      </trkpt>
      <trkpt lat="47.28272" lon="0.16939">
        <ele>47</ele>
        <time>2023-10-31T19:51:32Z</time>
      </trkpt>
    </trkseg>
  </trk>
  <trk>
    <name><![CDATA[Bourgueil_laChapelle_20.5km-8178228]]></name>
    <extensions>
      <line xmlns="http://www.topografix.com/GPX/gpx_style/0/2">
        <color>FF0000</color>
        <width>4</width>
      </line>
    </extensions>
    <trkseg>
      <trkpt lat="47.28176" lon="0.16866">
        <ele>47</ele>
        <time>2023-10-31T12:56:21Z</time>
      </trkpt>
      <trkpt lat="47.28135" lon="0.17051">
        <ele>41</ele>
        <time>2023-10-31T12:59:17Z</time>
      </trkpt>
      <trkpt lat="47.2803" lon="0.17046">
        <ele>36</ele>
        <time>2023-10-31T13:01:37Z</time>
      </trkpt>
      <trkpt lat="47.28004" lon="0.17269">
        <ele>35</ele>
        <time>2023-10-31T13:05:02Z</time>
      </trkpt>
      <trkpt lat="47.27879" lon="0.17244">
        <ele>31</ele>
        <time>2023-10-31T13:07:51Z</time>
      </trkpt>
      <trkpt lat="47.27882" lon="0.16853">
        <ele>33</ele>
        <time>2023-10-31T13:13:45Z</time>
      </trkpt>
      <trkpt lat="47.27806" lon="0.17016">
        <ele>32</ele>
        <time>2023-10-31T13:16:44Z</time>
      </trkpt>
      <trkpt lat="47.27704" lon="0.17111">
        <ele>31</ele>
        <time>2023-10-31T13:19:25Z</time>
      </trkpt>
      <trkpt lat="47.27669" lon="0.17295">
        <ele>31</ele>
        <time>2023-10-31T13:22:18Z</time>
      </trkpt>
      <trkpt lat="47.27544" lon="0.17248">
        <ele>30</ele>
        <time>2023-10-31T13:25:10Z</time>
      </trkpt>
      <trkpt lat="47.27518" lon="0.17325">
        <ele>30</ele>
        <time>2023-10-31T13:26:28Z</time>
      </trkpt>
      <trkpt lat="47.27314" lon="0.17334">
        <ele>30</ele>
        <time>2023-10-31T13:31:00Z</time>
      </trkpt>
      <trkpt lat="47.2707" lon="0.17257">
        <ele>30</ele>
        <time>2023-10-31T13:36:33Z</time>
      </trkpt>
      <trkpt lat="47.27043" lon="0.17613">
        <ele>30</ele>
        <time>2023-10-31T13:41:57Z</time>
      </trkpt>
      <trkpt lat="47.26953" lon="0.17604">
        <ele>29</ele>
        <time>2023-10-31T13:43:58Z</time>
      </trkpt>
      <trkpt lat="47.26959" lon="0.17711">
        <ele>30</ele>
        <time>2023-10-31T13:45:35Z</time>
      </trkpt>
      <trkpt lat="47.25966" lon="0.17729">
        <ele>29</ele>
        <time>2023-10-31T14:07:40Z</time>
      </trkpt>
      <trkpt lat="47.25712" lon="0.17763">
        <ele>30</ele>
        <time>2023-10-31T14:13:21Z</time>
      </trkpt>
      <trkpt lat="47.25506" lon="0.17827">
        <ele>30</ele>
        <time>2023-10-31T14:18:02Z</time>
      </trkpt>
      <trkpt lat="47.25401" lon="0.18068">
        <ele>31</ele>
        <time>2023-10-31T14:22:21Z</time>
      </trkpt>
      <trkpt lat="47.25354" lon="0.17677">
        <ele>29</ele>
        <time>2023-10-31T14:28:21Z</time>
      </trkpt>
      <trkpt lat="47.25372" lon="0.17377">
        <ele>29</ele>
        <time>2023-10-31T14:32:53Z</time>
      </trkpt>
      <trkpt lat="47.2536" lon="0.17214">
        <ele>30</ele>
        <time>2023-10-31T14:35:22Z</time>
      </trkpt>
      <trkpt lat="47.25383" lon="0.17046">
        <ele>29</ele>
        <time>2023-10-31T14:37:57Z</time>
      </trkpt>
      <trkpt lat="47.25185" lon="0.17033">
        <ele>28</ele>
        <time>2023-10-31T14:42:22Z</time>
      </trkpt>
      <trkpt lat="47.24783" lon="0.16892">
        <ele>29</ele>
        <time>2023-10-31T14:51:33Z</time>
      </trkpt>
      <trkpt lat="47.246" lon="0.16707">
        <ele>30</ele>
        <time>2023-10-31T14:56:29Z</time>
      </trkpt>
      <trkpt lat="47.24614" lon="0.1657">
        <ele>30</ele>
        <time>2023-10-31T14:58:35Z</time>
      </trkpt>
      <trkpt lat="47.24454" lon="0.16531">
        <ele>31</ele>
        <time>2023-10-31T15:02:11Z</time>
      </trkpt>
      <trkpt lat="47.24428" lon="0.16694">
        <ele>30</ele>
        <time>2023-10-31T15:04:43Z</time>
      </trkpt>
      <trkpt lat="47.24393" lon="0.16853">
        <ele>30</ele>
        <time>2023-10-31T15:07:14Z</time>
      </trkpt>
      <trkpt lat="47.24212" lon="0.16802">
        <ele>34</ele>
        <time>2023-10-31T15:11:20Z</time>
      </trkpt>
      <trkpt lat="47.2409" lon="0.17063">
        <ele>34</ele>
        <time>2023-10-31T15:16:07Z</time>
      </trkpt>
      <trkpt lat="47.24008" lon="0.17291">
        <ele>36</ele>
        <time>2023-10-31T15:20:01Z</time>
      </trkpt>
      <trkpt lat="47.23967" lon="0.17673">
        <ele>35</ele>
        <time>2023-10-31T15:25:51Z</time>
      </trkpt>
      <trkpt lat="47.23947" lon="0.18149">
        <ele>35</ele>
        <time>2023-10-31T15:33:03Z</time>
      </trkpt>
      <trkpt lat="47.23956" lon="0.18493">
        <ele>35</ele>
        <time>2023-10-31T15:38:15Z</time>
      </trkpt>
      <trkpt lat="47.23985" lon="0.1842">
        <ele>35</ele>
        <time>2023-10-31T15:39:32Z</time>
      </trkpt>
      <trkpt lat="47.24235" lon="0.18385">
        <ele>33</ele>
        <time>2023-10-31T15:45:07Z</time>
      </trkpt>
      <trkpt lat="47.24265" lon="0.18638">
        <ele>32</ele>
        <time>2023-10-31T15:49:00Z</time>
      </trkpt>
      <trkpt lat="47.24358" lon="0.18866">
        <ele>31</ele>
        <time>2023-10-31T15:53:01Z</time>
      </trkpt>
      <trkpt lat="47.24495" lon="0.18849">
        <ele>32</ele>
        <time>2023-10-31T15:56:04Z</time>
      </trkpt>
      <trkpt lat="47.24687" lon="0.18909">
        <ele>33</ele>
        <time>2023-10-31T16:00:26Z</time>
      </trkpt>
      <trkpt lat="47.24742" lon="0.18776">
        <ele>31</ele>
        <time>2023-10-31T16:02:47Z</time>
      </trkpt>
      <trkpt lat="47.25051" lon="0.18613">
        <ele>30</ele>
        <time>2023-10-31T16:10:05Z</time>
      </trkpt>
      <trkpt lat="47.25016" lon="0.18741">
        <ele>32</ele>
        <time>2023-10-31T16:12:10Z</time>
      </trkpt>
      <trkpt lat="47.2504" lon="0.19235">
        <ele>31</ele>
        <time>2023-10-31T16:19:39Z</time>
      </trkpt>
      <trkpt lat="47.24961" lon="0.1942">
        <ele>30</ele>
        <time>2023-10-31T16:22:57Z</time>
      </trkpt>
      <trkpt lat="47.24853" lon="0.19411">
        <ele>34</ele>
        <time>2023-10-31T16:25:21Z</time>
      </trkpt>
      <trkpt lat="47.24737" lon="0.19604">
        <ele>32</ele>
        <time>2023-10-31T16:29:15Z</time>
      </trkpt>
      <trkpt lat="47.24827" lon="0.20445">
        <ele>32</ele>
        <time>2023-10-31T16:42:06Z</time>
      </trkpt>
      <trkpt lat="47.249" lon="0.20475">
        <ele>32</ele>
        <time>2023-10-31T16:43:47Z</time>
      </trkpt>
      <trkpt lat="47.24821" lon="0.20552">
        <ele>32</ele>
        <time>2023-10-31T16:45:54Z</time>
      </trkpt>
      <trkpt lat="47.24917" lon="0.21012">
        <ele>34</ele>
        <time>2023-10-31T16:53:09Z</time>
      </trkpt>
      <trkpt lat="47.24879" lon="0.21025">
        <ele>34</ele>
        <time>2023-10-31T16:54:02Z</time>
      </trkpt>
      <trkpt lat="47.2485" lon="0.21033">
        <ele>34</ele>
        <time>2023-10-31T16:54:41Z</time>
      </trkpt>
      <trkpt lat="47.24824" lon="0.21029">
        <ele>34</ele>
        <time>2023-10-31T16:55:16Z</time>
      </trkpt>
      <trkpt lat="47.24836" lon="0.21128">
        <ele>33</ele>
        <time>2023-10-31T16:56:47Z</time>
      </trkpt>
      <trkpt lat="47.24862" lon="0.21166">
        <ele>33</ele>
        <time>2023-10-31T16:57:36Z</time>
      </trkpt>
      <trkpt lat="47.24891" lon="0.21308">
        <ele>32</ele>
        <time>2023-10-31T16:59:50Z</time>
      </trkpt>
      <trkpt lat="47.24821" lon="0.21338">
        <ele>31</ele>
        <time>2023-10-31T17:01:27Z</time>
      </trkpt>
      <trkpt lat="47.24804" lon="0.21406">
        <ele>32</ele>
        <time>2023-10-31T17:02:33Z</time>
      </trkpt>
      <trkpt lat="47.24646" lon="0.21548">
        <ele>34</ele>
        <time>2023-10-31T17:06:40Z</time>
      </trkpt>
      <trkpt lat="47.24774" lon="0.21969">
        <ele>36</ele>
        <time>2023-10-31T17:13:38Z</time>
      </trkpt>
      <trkpt lat="47.25089" lon="0.21797">
        <ele>34</ele>
        <time>2023-10-31T17:21:06Z</time>
      </trkpt>
      <trkpt lat="47.25182" lon="0.21758">
        <ele>34</ele>
        <time>2023-10-31T17:23:15Z</time>
      </trkpt>
      <trkpt lat="47.25313" lon="0.21767">
        <ele>32</ele>
        <time>2023-10-31T17:26:10Z</time>
      </trkpt>
      <trkpt lat="47.25479" lon="0.21621">
        <ele>31</ele>
        <time>2023-10-31T17:30:28Z</time>
      </trkpt>
      <trkpt lat="47.25415" lon="0.21342">
        <ele>31</ele>
        <time>2023-10-31T17:34:55Z</time>
      </trkpt>
      <trkpt lat="47.25331" lon="0.21192">
        <ele>30</ele>
        <time>2023-10-31T17:37:51Z</time>
      </trkpt>
      <trkpt lat="47.25581" lon="0.21097">
        <ele>30</ele>
        <time>2023-10-31T17:43:36Z</time>
      </trkpt>
      <trkpt lat="47.25506" lon="0.20681">
        <ele>31</ele>
        <time>2023-10-31T17:50:05Z</time>
      </trkpt>
      <trkpt lat="47.25509" lon="0.20578">
        <ele>31</ele>
        <time>2023-10-31T17:51:39Z</time>
      </trkpt>
      <trkpt lat="47.25744" lon="0.20454">
        <ele>31</ele>
        <time>2023-10-31T17:57:12Z</time>
      </trkpt>
      <trkpt lat="47.25919" lon="0.20458">
        <ele>30</ele>
        <time>2023-10-31T18:01:06Z</time>
      </trkpt>
      <trkpt lat="47.26248" lon="0.20334">
        <ele>31</ele>
        <time>2023-10-31T18:08:39Z</time>
      </trkpt>
      <trkpt lat="47.26362" lon="0.20394">
        <ele>29</ele>
        <time>2023-10-31T18:11:20Z</time>
      </trkpt>
      <trkpt lat="47.26475" lon="0.20368">
        <ele>29</ele>
        <time>2023-10-31T18:13:53Z</time>
      </trkpt>
      <trkpt lat="47.26609" lon="0.20428">
        <ele>30</ele>
        <time>2023-10-31T18:17:00Z</time>
      </trkpt>
      <trkpt lat="47.26802" lon="0.20385">
        <ele>30</ele>
        <time>2023-10-31T18:21:20Z</time>
      </trkpt>
      <trkpt lat="47.26895" lon="0.20437">
        <ele>30</ele>
        <time>2023-10-31T18:23:33Z</time>
      </trkpt>
      <trkpt lat="47.27148" lon="0.20445">
        <ele>29</ele>
        <time>2023-10-31T18:29:11Z</time>
      </trkpt>
      <trkpt lat="47.27134" lon="0.20342">
        <ele>30</ele>
        <time>2023-10-31T18:30:46Z</time>
      </trkpt>
      <trkpt lat="47.27771" lon="0.20359">
        <ele>30</ele>
        <time>2023-10-31T18:44:56Z</time>
      </trkpt>
      <trkpt lat="47.27888" lon="0.20407">
        <ele>31</ele>
        <time>2023-10-31T18:47:38Z</time>
      </trkpt>
      <trkpt lat="47.27934" lon="0.20003">
        <ele>31</ele>
        <time>2023-10-31T18:53:49Z</time>
      </trkpt>
      <trkpt lat="47.27998" lon="0.19883">
        <ele>32</ele>
        <time>2023-10-31T18:56:07Z</time>
      </trkpt>
      <trkpt lat="47.2808" lon="0.19857">
        <ele>33</ele>
        <time>2023-10-31T18:57:59Z</time>
      </trkpt>
      <trkpt lat="47.28071" lon="0.19368">
        <ele>34</ele>
        <time>2023-10-31T19:05:22Z</time>
      </trkpt>
      <trkpt lat="47.28394" lon="0.18548">
        <ele>42</ele>
        <time>2023-10-31T19:19:40Z</time>
      </trkpt>
      <trkpt lat="47.28351" lon="0.18111">
        <ele>42</ele>
        <time>2023-10-31T19:26:20Z</time>
      </trkpt>
      <trkpt lat="47.28496" lon="0.17368">
        <ele>43</ele>
        <time>2023-10-31T19:38:00Z</time>
      </trkpt>
      <trkpt lat="47.28231" lon="0.17257">
        <ele>43</ele>
        <time>2023-10-31T19:44:08Z</time>
      </trkpt>
      <trkpt lat="47.28246" lon="0.17072">
        <ele>44</ele>
        <time>2023-10-31T19:46:56Z</time>
      </trkpt>
    </trkseg>
  </trk>
</gpx>